QPF
0.00 0.00 0.00 0.00 0.00 0.00 0.00 0.00 0.00 0.00 0.01 0.02 0.01 0.01 0.00 0.00 0.00 0.00 0.00 0.00 0.00 0.01 0.00 0.01 0.01 0.01 0.01 0.01 0.02 0.03 0.06 0.06 0.05 0.06 0.08 0.12 0.15 0.14 0.14 0.12 0.10 0.09 0.10 0.11
0.00 0.00 0.00 0.00 0.00 0.00 0.00 0.00 0.00 0.01 0.03 0.05 0.03 0.02 0.01 0.00 0.00 0.01 0.01 0.00 0.01 0.01 0.01 0.01 0.01 0.00 0.01 0.01 0.02 0.04 0.06 0.06 0.07 0.09 0.08 0.08 0.09 0.10 0.12 0.12 0.12 0.12 0.11 0.09
0.00 0.00 0.00 0.00 0.00 0.00 0.00 0.00 0.00 0.00 0.01 0.01 0.03 0.02 0.01 0.00 0.00 0.01 0.01 0.01 0.02 0.01 0.01 0.01 0.00 0.00 0.00 0.01 0.03 0.04 0.05 0.06 0.08 0.10 0.09 0.08 0.06 0.06 0.07 0.10 0.12 0.11 0.10 0.09
0.00 0.00 0.00 0.00 0.00 0.00 0.00 0.00 0.00 0.00 0.00 0.01 0.01 0.02 0.01 0.01 0.01 0.02 0.03 0.02 0.03 0.02 0.01 0.01 0.01 0.01 0.01 0.02 0.03 0.04 0.05 0.05 0.06 0.08 0.10 0.09 0.07 0.07 0.07 0.08 0.10 0.10 0.10 0.09
0.00 0.00 0.00 0.00 0.00 0.00 0.00 0.00 0.00 0.00 0.00 0.01 0.02 0.05 0.05 0.02 0.01 0.02 0.03 0.02 0.02 0.02 0.01 0.01 0.02 0.02 0.02 0.03 0.04 0.04 0.04 0.04 0.06 0.06 0.08 0.08 0.07 0.07 0.07 0.07 0.09 0.10 0.10 0.11
0.00 0.01 0.01 0.01 0.00 0.00 0.00 0.02 0.02 0.02 0.01 0.01 0.05 0.11 0.09 0.02 0.01 0.01 0.02 0.03 0.03 0.04 0.04 0.04 0.03 0.04 0.04 0.05 0.06 0.06 0.05 0.06 0.07 0.10 0.09 0.09 0.09 0.09 0.10 0.12 0.13 0.13 0.14 0.12
0.00 0.00 0.02 0.01 0.01 0.01 0.02 0.03 0.02 0.03 0.02 0.01 0.03 0.06 0.08 0.04 0.01 0.01 0.02 0.03 0.03 0.04 0.06 0.05 0.05 0.04 0.05 0.05 0.06 0.07 0.08 0.08 0.08 0.10 0.11 0.11 0.11 0.12 0.12 0.13 0.14 0.14 0.12 0.11
0.00 0.01 0.03 0.01 0.01 0.03 0.06 0.03 0.01 0.03 0.06 0.05 0.07 0.04 0.03 0.01 0.01 0.01 0.02 0.03 0.03 0.04 0.06 0.06 0.07 0.05 0.04 0.05 0.06 0.08 0.09 0.09 0.09 0.11 0.11 0.11 0.13 0.14 0.15 0.15 0.13 0.12 0.11 0.10
0.02 0.05 0.05 0.02 0.02 0.02 0.03 0.03 0.02 0.03 0.06 0.05 0.06 0.05 0.02 0.01 0.01 0.00 0.01 0.03 0.05 0.05 0.05 0.05 0.06 0.07 0.06 0.05 0.05 0.05 0.06 0.07 0.08 0.08 0.09 0.11 0.12 0.13 0.14 0.12 0.11 0.10 0.11 0.11
0.03 0.04 0.05 0.04 0.02 0.02 0.02 0.01 0.02 0.02 0.03 0.04 0.04 0.03 0.01 0.01 0.01 0.01 0.01 0.02 0.04 0.05 0.05 0.04 0.05 0.04 0.03 0.02 0.02 0.03 0.04 0.05 0.06 0.06 0.06 0.09 0.12 0.14 0.13 0.12 0.12 0.12 0.12 0.12
0.05 0.06 0.05 0.04 0.02 0.02 0.02 0.02 0.01 0.01 0.03 0.04 0.04 0.03 0.01 0.01 0.00 0.01 0.01 0.02 0.03 0.04 0.05 0.05 0.04 0.02 0.03 0.02 0.02 0.02 0.03 0.04 0.05 0.06 0.07 0.07 0.09 0.10 0.12 0.13 0.15 0.15 0.14 0.11
0.07 0.08 0.08 0.06 0.02 0.01 0.01 0.02 0.01 0.01 0.02 0.02 0.02 0.02 0.01 0.01 0.01 0.01 0.01 0.02 0.02 0.03 0.04 0.04 0.05 0.04 0.03 0.03 0.03 0.03 0.03 0.05 0.05 0.05 0.06 0.08 0.09 0.09 0.11 0.11 0.12 0.12 0.10 0.09
0.04 0.06 0.06 0.05 0.02 0.01 0.02 0.02 0.01 0.02 0.01 0.01 0.01 0.01 0.01 0.01 0.01 0.01 0.02 0.02 0.01 0.01 0.02 0.02 0.03 0.04 0.06 0.06 0.06 0.05 0.04 0.05 0.05 0.05 0.07 0.07 0.07 0.06 0.06 0.07 0.08 0.09 0.10 0.10
0.03 0.05 0.06 0.04 0.02 0.02 0.02 0.02 0.01 0.01 0.01 0.01 0.01 0.02 0.01 0.00 0.01 0.01 0.01 0.02 0.02 0.02 0.02 0.02 0.01 0.02 0.04 0.07 0.09 0.09 0.08 0.08 0.08 0.07 0.06 0.05 0.05 0.05 0.06 0.07 0.07 0.08 0.09 0.08
0.04 0.07 0.05 0.02 0.02 0.02 0.02 0.02 0.02 0.02 0.02 0.01 0.01 0.01 0.01 0.01 0.01 0.01 0.01 0.01 0.01 0.02 0.02 0.01 0.02 0.02 0.02 0.05 0.08 0.13 0.14 0.11 0.09 0.07 0.05 0.04 0.03 0.04 0.05 0.07 0.07 0.07 0.07 0.06
0.05 0.05 0.05 0.02 0.02 0.02 0.02 0.02 0.03 0.03 0.02 0.01 0.01 0.01 0.02 0.02 0.01 0.01 0.01 0.01 0.02 0.02 0.02 0.02 0.02 0.02 0.03 0.05 0.06 0.06 0.07 0.08 0.06 0.04 0.03 0.03 0.03 0.04 0.04 0.05 0.05 0.05 0.05 0.03
0.08 0.06 0.05 0.04 0.02 0.02 0.02 0.03 0.03 0.02 0.01 0.02 0.01 0.01 0.01 0.02 0.02 0.02 0.03 0.03 0.03 0.02 0.01 0.02 0.02 0.02 0.03 0.05 0.08 0.07 0.06 0.07 0.06 0.05 0.03 0.02 0.02 0.02 0.02 0.01 0.01 0.01 0.01 0.01
0.07 0.07 0.05 0.04 0.03 0.03 0.03 0.04 0.04 0.03 0.02 0.02 0.02 0.02 0.02 0.03 0.03 0.04 0.05 0.04 0.02 0.02 0.02 0.02 0.02 0.03 0.04 0.05 0.06 0.07 0.07 0.07 0.05 0.04 0.03 0.02 0.01 0.01 0.01 0.00 0.00 0.00 0.00 0.00
0.04 0.07 0.06 0.04 0.04 0.04 0.03 0.04 0.05 0.06 0.04 0.03 0.03 0.04 0.04 0.03 0.03 0.04 0.05 0.04 0.03 0.02 0.02 0.02 0.02 0.02 0.02 0.02 0.02 0.02 0.04 0.06 0.06 0.05 0.04 0.03 0.02 0.01 0.01 0.00 0.00 0.00 0.00 0.00
0.03 0.07 0.08 0.03 0.03 0.04 0.05 0.04 0.04 0.05 0.07 0.06 0.05 0.05 0.05 0.04 0.04 0.05 0.05 0.04 0.03 0.02 0.01 0.01 0.01 0.01 0.01 0.02 0.02 0.02 0.02 0.03 0.04 0.04 0.04 0.04 0.03 0.02 0.02 0.02 0.01 0.00 0.00 0.00
0.03 0.05 0.05 0.03 0.03 0.06 0.06 0.04 0.03 0.04 0.06 0.06 0.05 0.05 0.04 0.05 0.05 0.05 0.04 0.05 0.04 0.02 0.01 0.00 0.01 0.01 0.01 0.02 0.02 0.02 0.01 0.01 0.01 0.01 0.01 0.01 0.02 0.01 0.01 0.01 0.01 0.00 0.00 0.00
0.03 0.03 0.04 0.05 0.06 0.08 0.08 0.04 0.03 0.03 0.04 0.04 0.03 0.03 0.04 0.04 0.03 0.03 0.03 0.03 0.03 0.02 0.01 0.00 0.00 0.00 0.00 0.00 0.00 0.00 0.01 0.01 0.01 0.01 0.01 0.01 0.01 0.01 0.00 0.00 0.00 0.00 0.00 0.00
0.04 0.03 0.05 0.07 0.07 0.08 0.07 0.05 0.03 0.03 0.04 0.03 0.03 0.03 0.03 0.03 0.02 0.02 0.02 0.01 0.01 0.01 0.00 0.00 0.00 0.00 0.00 0.00 0.00 0.00 0.00 0.01 0.01 0.01 0.01 0.01 0.01 0.01 0.01 0.00 0.00 0.00 0.00 0.00
0.06 0.05 0.05 0.07 0.08 0.07 0.06 0.05 0.03 0.04 0.04 0.04 0.04 0.04 0.03 0.02 0.02 0.01 0.01 0.01 0.01 0.01 0.00 0.00 0.00 0.00 0.00 0.00 0.00 0.00 0.00 0.00 0.00 0.00 0.00 0.00 0.00 0.00 0.00 0.00 0.00 0.00 0.00 0.00
0.05 0.05 0.06 0.07 0.07 0.06 0.05 0.04 0.04 0.04 0.04 0.04 0.04 0.03 0.02 0.01 0.01 0.01 0.00 0.00 0.00 0.00 0.00 0.00 0.00 0.00 0.00 0.00 0.00 0.00 0.00 0.00 0.00 0.00 0.00 0.00 0.00 0.00 0.00 0.00 0.00 0.00 0.00 0.00
0.06 0.06 0.06 0.05 0.05 0.04 0.03 0.03 0.03 0.03 0.03 0.03 0.02 0.02 0.01 0.01 0.00 0.00 0.00 0.00 0.00 0.00 0.00 0.00 0.00 0.00 0.00 0.00 0.00 0.00 0.00 0.00 0.00 0.00 0.00 0.00 0.00 0.00 0.00 0.00 0.00 0.00 0.00 0.00
0.06 0.06 0.05 0.04 0.03 0.03 0.03 0.03 0.04 0.03 0.02 0.01 0.01 0.01 0.01 0.00 0.00 0.00 0.00 0.00 0.00 0.00 0.00 0.00 0.00 0.00 0.00 0.00 0.00 0.00 0.00 0.00 0.00 0.00 0.00 0.00 0.00 0.00 0.00 0.00 0.00 0.00 0.00 0.00
MSLP
1004.37 1004.60 1004.84 1005.07 1005.29 1005.49 1005.66 1005.76 1005.80 1005.77 1005.66 1005.49 1005.30 1005.13 1005.00 1004.96 1005.03 1005.24 1005.59 1006.07 1006.66 1007.32 1008.02 1008.73 1009.41 1010.04 1010.59 1011.05 1011.44 1011.75 1012.02 1012.28 1012.54 1012.84 1013.19 1013.61 1014.10 1014.64 1015.20 1015.76 1016.28 1016.75 1017.15 1017.47
1004.54 1004.65 1004.73 1004.78 1004.82 1004.87 1004.93 1005.01 1005.10 1005.18 1005.24 1005.29 1005.32 1005.34 1005.36 1005.41 1005.51 1005.69 1005.96 1006.34 1006.83 1007.42 1008.07 1008.77 1009.47 1010.15 1010.76 1011.29 1011.74 1012.10 1012.41 1012.68 1012.95 1013.26 1013.63 1014.08 1014.60 1015.18 1015.78 1016.38 1016.93 1017.42 1017.83 1018.15
1004.79 1004.78 1004.70 1004.58 1004.46 1004.36 1004.33 1004.38 1004.50 1004.68 1004.90 1005.14 1005.36 1005.56 1005.72 1005.85 1005.97 1006.12 1006.31 1006.60 1006.98 1007.48 1008.08 1008.75 1009.47 1010.18 1010.86 1011.47 1011.99 1012.43 1012.78 1013.10 1013.41 1013.74 1014.13 1014.60 1015.15 1015.75 1016.39 1017.01 1017.59 1018.10 1018.51 1018.84
1005.07 1004.94 1004.71 1004.43 1004.15 1003.92 1003.79 1003.79 1003.93 1004.19 1004.54 1004.94 1005.33 1005.69 1005.97 1006.19 1006.35 1006.47 1006.62 1006.81 1007.11 1007.52 1008.05 1008.69 1009.40 1010.15 1010.89 1011.57 1012.17 1012.68 1013.11 1013.49 1013.85 1014.22 1014.65 1015.14 1015.71 1016.33 1016.99 1017.63 1018.23 1018.75 1019.18 1019.52
1005.34 1005.08 1004.70 1004.27 1003.83 1003.47 1003.24 1003.19 1003.33 1003.64 1004.09 1004.61 1005.16 1005.66 1006.07 1006.39 1006.60 1006.74 1006.86 1007.00 1007.22 1007.56 1008.03 1008.63 1009.33 1010.09 1010.87 1011.61 1012.29 1012.88 1013.40 1013.85 1014.27 1014.70 1015.16 1015.69 1016.28 1016.91 1017.58 1018.23 1018.84 1019.38 1019.83 1020.19
1005.54 1005.15 1004.63 1004.04 1003.47 1002.98 1002.65 1002.54 1002.66 1003.00 1003.52 1004.15 1004.83 1005.47 1006.01 1006.44 1006.74 1006.93 1007.06 1007.19 1007.38 1007.67 1008.09 1008.65 1009.32 1010.08 1010.88 1011.67 1012.41 1013.08 1013.67 1014.20 1014.70 1015.18 1015.70 1016.25 1016.86 1017.51 1018.18 1018.84 1019.46 1020.01 1020.48 1020.86
1005.64 1005.13 1004.48 1003.76 1003.06 1002.46 1002.04 1001.87 1001.96 1002.32 1002.89 1003.61 1004.39 1005.17 1005.85 1006.41 1006.82 1007.11 1007.30 1007.45 1007.64 1007.91 1008.29 1008.81 1009.46 1010.20 1011.01 1011.82 1012.60 1013.34 1014.00 1014.61 1015.17 1015.72 1016.28 1016.87 1017.50 1018.15 1018.83 1019.49 1020.11 1020.66 1021.14 1021.53
1005.66 1005.03 1004.28 1003.46 1002.66 1001.98 1001.50 1001.28 1001.35 1001.70 1002.31 1003.10 1003.98 1004.87 1005.70 1006.39 1006.94 1007.34 1007.62 1007.85 1008.07 1008.34 1008.71 1009.20 1009.82 1010.53 1011.32 1012.14 1012.95 1013.72 1014.44 1015.11 1015.73 1016.34 1016.94 1017.55 1018.19 1018.85 1019.52 1020.17 1020.78 1021.33 1021.81 1022.21
1005.62 1004.91 1004.09 1003.22 1002.38 1001.66 1001.14 1000.89 1000.95 1001.30 1001.93 1002.77 1003.73 1004.72 1005.66 1006.49 1007.18 1007.71 1008.11 1008.42 1008.70 1009.00 1009.37 1009.85 1010.43 1011.11 1011.87 1012.67 1013.48 1014.27 1015.02 1015.73 1016.40 1017.04 1017.67 1018.31 1018.95 1019.60 1020.24 1020.87 1021.46 1022.00 1022.47 1022.87
1005.55 1004.82 1004.00 1003.13 1002.30 1001.59 1001.08 1000.84 1000.89 1001.25 1001.89 1002.75 1003.76 1004.82 1005.86 1006.80 1007.60 1008.26 1008.77 1009.18 1009.53 1009.88 1010.26 1010.73 1011.28 1011.92 1012.64 1013.40 1014.19 1014.98 1015.73 1016.46 1017.15 1017.81 1018.45 1019.08 1019.71 1020.34 1020.96 1021.56 1022.12 1022.63 1023.08 1023.46
1005.50 1004.82 1004.06 1003.26 1002.51 1001.86 1001.41 1001.20 1001.27 1001.63 1002.27 1003.13 1004.15 1005.24 1006.32 1007.33 1008.23 1008.98 1009.60 1010.10 1010.52 1010.91 1011.32 1011.77 1012.29 1012.89 1013.55 1014.27 1015.02 1015.77 1016.51 1017.22 1017.90 1018.56 1019.19 1019.81 1020.42 1021.02 1021.60 1022.16 1022.68 1023.16 1023.58 1023.93
1005.49 1004.91 1004.28 1003.62 1003.00 1002.48 1002.11 1001.96 1002.07 1002.43 1003.05 1003.88 1004.87 1005.95 1007.03 1008.07 1009.02 1009.84 1010.52 1011.09 1011.58 1012.01 1012.43 1012.88 1013.37 1013.91 1014.52 1015.17 1015.86 1016.55 1017.25 1017.92 1018.58 1019.21 1019.82 1020.41 1020.99 1021.55 1022.09 1022.61 1023.10 1023.54 1023.93 1024.26
1005.50 1005.09 1004.63 1004.16 1003.71 1003.34 1003.10 1003.03 1003.18 1003.54 1004.13 1004.91 1005.84 1006.86 1007.91 1008.93 1009.87 1010.72 1011.45 1012.07 1012.59 1013.05 1013.49 1013.92 1014.38 1014.87 1015.41 1015.99 1016.60 1017.22 1017.86 1018.48 1019.09 1019.69 1020.26 1020.82 1021.36 1021.89 1022.40 1022.89 1023.34 1023.76 1024.12 1024.43
1005.49 1005.27 1005.02 1004.76 1004.51 1004.32 1004.22 1004.24 1004.43 1004.80 1005.34 1006.05 1006.90 1007.84 1008.82 1009.79 1010.71 1011.55 1012.29 1012.93 1013.48 1013.96 1014.39 1014.81 1015.23 1015.67 1016.13 1016.63 1017.16 1017.71 1018.27 1018.83 1019.39 1019.94 1020.48 1021.01 1021.53 1022.04 1022.52 1022.99 1023.42 1023.82 1024.18 1024.48
1005.41 1005.39 1005.36 1005.31 1005.27 1005.26 1005.29 1005.42 1005.65 1006.02 1006.53 1007.17 1007.93 1008.78 1009.67 1010.57 1011.45 1012.26 1012.99 1013.63 1014.19 1014.68 1015.10 1015.50 1015.87 1016.25 1016.65 1017.07 1017.51 1017.98 1018.46 1018.96 1019.47 1019.99 1020.50 1021.01 1021.51 1022.01 1022.49 1022.95 1023.38 1023.78 1024.14 1024.44
1005.22 1005.39 1005.56 1005.71 1005.86 1006.01 1006.19 1006.41 1006.69 1007.07 1007.56 1008.14 1008.83 1009.60 1010.41 1011.25 1012.06 1012.84 1013.56 1014.19 1014.74 1015.22 1015.63 1015.99 1016.32 1016.64 1016.97 1017.30 1017.67 1018.06 1018.47 1018.92 1019.39 1019.87 1020.37 1020.88 1021.38 1021.88 1022.37 1022.85 1023.29 1023.70 1024.06 1024.37
1004.91 1005.24 1005.58 1005.91 1006.23 1006.53 1006.83 1007.14 1007.49 1007.90 1008.38 1008.94 1009.58 1010.28 1011.04 1011.82 1012.60 1013.34 1014.03 1014.65 1015.19 1015.65 1016.03 1016.35 1016.64 1016.90 1017.15 1017.41 1017.70 1018.02 1018.38 1018.78 1019.22 1019.69 1020.19 1020.70 1021.22 1021.74 1022.25 1022.74 1023.20 1023.63 1024.00 1024.33
1004.52 1004.97 1005.44 1005.92 1006.38 1006.81 1007.23 1007.64 1008.06 1008.51 1009.02 1009.57 1010.20 1010.88 1011.61 1012.36 1013.10 1013.82 1014.49 1015.09 1015.61 1016.04 1016.39 1016.67 1016.90 1017.09 1017.28 1017.48 1017.70 1017.97 1018.28 1018.65 1019.07 1019.54 1020.05 1020.58 1021.12 1021.67 1022.20 1022.71 1023.19 1023.62 1024.01 1024.34
1004.13 1004.67 1005.25 1005.84 1006.41 1006.96 1007.48 1007.99 1008.49 1009.01 1009.56 1010.15 1010.79 1011.47 1012.20 1012.93 1013.67 1014.37 1015.01 1015.59 1016.07 1016.47 1016.78 1017.01 1017.18 1017.32 1017.45 1017.59 1017.76 1017.98 1018.27 1018.62 1019.03 1019.50 1020.02 1020.58 1021.14 1021.71 1022.26 1022.78 1023.26 1023.69 1024.07 1024.40
1003.88 1004.48 1005.14 1005.81 1006.47 1007.11 1007.73 1008.32 1008.91 1009.50 1010.11 1010.76 1011.43 1012.14 1012.87 1013.61 1014.33 1015.02 1015.64 1016.18 1016.63 1016.98 1017.24 1017.42 1017.54 1017.63 1017.71 1017.80 1017.94 1018.13 1018.39 1018.73 1019.15 1019.63 1020.16 1020.72 1021.30 1021.88 1022.43 1022.95 1023.41 1023.83 1024.18 1024.49
1003.88 1004.53 1005.24 1005.97 1006.70 1007.41 1008.11 1008.78 1009.44 1010.10 1010.78 1011.47 1012.18 1012.92 1013.66 1014.39 1015.10 1015.76 1016.34 1016.84 1017.25 1017.55 1017.76 1017.90 1017.97 1018.02 1018.06 1018.12 1018.23 1018.41 1018.67 1019.00 1019.42 1019.90 1020.44 1021.00 1021.58 1022.14 1022.68 1023.17 1023.60 1023.98 1024.29 1024.56
1004.24 1004.92 1005.65 1006.42 1007.19 1007.95 1008.70 1009.43 1010.14 1010.86 1011.58 1012.30 1013.04 1013.78 1014.52 1015.24 1015.91 1016.53 1017.07 1017.52 1017.87 1018.13 1018.30 1018.39 1018.43 1018.45 1018.47 1018.52 1018.62 1018.80 1019.05 1019.39 1019.80 1020.28 1020.81 1021.36 1021.91 1022.45 1022.95 1023.39 1023.78 1024.10 1024.36 1024.57
1004.99 1005.67 1006.42 1007.20 1007.98 1008.76 1009.52 1010.28 1011.01 1011.75 1012.48 1013.21 1013.94 1014.67 1015.37 1016.05 1016.68 1017.24 1017.72 1018.12 1018.42 1018.63 1018.76 1018.83 1018.85 1018.86 1018.88 1018.94 1019.05 1019.23 1019.49 1019.83 1020.23 1020.70 1021.20 1021.72 1022.24 1022.73 1023.17 1023.56 1023.89 1024.15 1024.36 1024.51
1006.09 1006.77 1007.50 1008.26 1009.03 1009.78 1010.53 1011.26 1011.98 1012.70 1013.40 1014.10 1014.80 1015.47 1016.12 1016.74 1017.30 1017.80 1018.22 1018.56 1018.81 1018.98 1019.09 1019.15 1019.18 1019.20 1019.24 1019.32 1019.45 1019.65 1019.91 1020.25 1020.64 1021.08 1021.55 1022.03 1022.49 1022.92 1023.31 1023.64 1023.90 1024.12 1024.27 1024.38
1007.46 1008.11 1008.80 1009.51 1010.22 1010.92 1011.61 1012.29 1012.95 1013.60 1014.25 1014.89 1015.51 1016.11 1016.69 1017.22 1017.71 1018.14 1018.50 1018.78 1019.00 1019.16 1019.26 1019.33 1019.38 1019.43 1019.50 1019.61 1019.77 1019.99 1020.26 1020.59 1020.97 1021.38 1021.80 1022.22 1022.63 1023.00 1023.33 1023.60 1023.82 1023.99 1024.11 1024.20
1008.93 1009.53 1010.15 1010.78 1011.41 1012.02 1012.63 1013.22 1013.80 1014.36 1014.92 1015.48 1016.01 1016.53 1017.02 1017.48 1017.89 1018.25 1018.56 1018.81 1019.01 1019.16 1019.27 1019.37 1019.45 1019.54 1019.66 1019.81 1020.00 1020.23 1020.52 1020.83 1021.18 1021.55 1021.93 1022.30 1022.65 1022.96 1023.24 1023.47 1023.66 1023.81 1023.92 1024.01
1010.33 1010.86 1011.39 1011.93 1012.46 1012.97 1013.47 1013.96 1014.44 1014.91 1015.38 1015.84 1016.29 1016.73 1017.14 1017.53 1017.88 1018.19 1018.46 1018.69 1018.88 1019.04 1019.18 1019.31 1019.43 1019.57 1019.73 1019.92 1020.13 1020.38 1020.66 1020.96 1021.28 1021.61 1021.94 1022.25 1022.55 1022.83 1023.07 1023.28 1023.46 1023.62 1023.74 1023.85
Thickness
5791 5805 5810 5805 5803 5806 5802 5802 5794 5797 5796 5800 5806 5808 5810 5811 5807 5802 5797 5793 5788 5784 5781 5778 5775 5773 5771 5768 5765 5763 5759 5755 5752 5750 5748 5746 5744 5741 5739 5737 5736 5734 5732 5729
5776 5794 5800 5798 5805 5807 5805 5807 5802 5799 5793 5802 5805 5809 5804 5803 5801 5793 5790 5787 5784 5780 5776 5773 5771 5769 5767 5764 5762 5759 5755 5752 5750 5747 5745 5742 5740 5737 5735 5733 5731 5729 5727 5724
5761 5782 5786 5777 5798 5804 5805 5811 5806 5792 5793 5798 5796 5794 5794 5795 5795 5790 5785 5781 5777 5774 5771 5769 5768 5766 5762 5760 5759 5755 5751 5749 5746 5743 5740 5738 5736 5733 5730 5728 5727 5724 5721 5719
5755 5763 5747 5783 5816 5816 5808 5810 5812 5804 5801 5799 5789 5787 5790 5791 5788 5783 5779 5776 5772 5770 5768 5766 5765 5763 5760 5757 5754 5750 5747 5744 5742 5739 5735 5733 5730 5727 5724 5722 5720 5717 5714 5712
5747 5747 5756 5783 5802 5807 5798 5792 5805 5800 5792 5788 5785 5777 5771 5778 5780 5777 5774 5770 5767 5766 5763 5760 5758 5757 5754 5751 5748 5744 5741 5738 5736 5734 5730 5727 5724 5721 5719 5715 5712 5709 5707 5704
5739 5734 5736 5766 5793 5808 5798 5773 5794 5792 5783 5778 5774 5757 5752 5765 5769 5767 5765 5762 5759 5758 5755 5751 5750 5749 5746 5742 5740 5736 5735 5733 5731 5728 5725 5721 5718 5715 5712 5709 5705 5701 5698 5695
5730 5732 5742 5768 5784 5788 5758 5757 5783 5782 5778 5773 5766 5761 5757 5759 5759 5757 5754 5753 5751 5748 5743 5741 5741 5739 5735 5732 5729 5729 5729 5727 5724 5721 5718 5715 5711 5708 5705 5701 5696 5692 5688 5684
5728 5724 5725 5760 5764 5753 5750 5766 5772 5770 5767 5759 5756 5755 5753 5750 5747 5746 5743 5742 5741 5737 5733 5732 5731 5728 5724 5721 5720 5720 5719 5715 5713 5710 5708 5706 5702 5698 5695 5691 5687 5682 5678 5674
5730 5727 5737 5750 5749 5754 5760 5756 5757 5758 5757 5752 5745 5744 5742 5738 5736 5735 5733 5732 5730 5727 5722 5721 5719 5717 5713 5711 5710 5709 5706 5703 5700 5698 5696 5693 5690 5687 5685 5682 5678 5673 5669 5664
5718 5721 5730 5737 5743 5749 5751 5751 5752 5751 5750 5745 5737 5734 5732 5728 5725 5723 5721 5719 5718 5715 5711 5708 5707 5705 5703 5702 5700 5698 5694 5691 5688 5685 5682 5678 5676 5674 5671 5669 5666 5662 5658 5652
5704 5709 5717 5723 5730 5735 5739 5742 5742 5743 5740 5735 5728 5723 5720 5716 5713 5710 5709 5707 5705 5702 5699 5696 5695 5694 5693 5692 5690 5687 5683 5680 5676 5672 5667 5661 5657 5653 5652 5649 5650 5649 5645 5641
5694 5703 5706 5708 5719 5727 5727 5727 5728 5728 5725 5724 5719 5713 5709 5704 5702 5699 5696 5695 5692 5690 5688 5686 5684 5682 5682 5681 5680 5677 5672 5668 5664 5660 5655 5650 5645 5638 5632 5632 5632 5631 5628 5626
5698 5704 5703 5705 5710 5716 5716 5716 5717 5716 5712 5708 5706 5702 5697 5693 5690 5687 5684 5683 5680 5678 5676 5675 5673 5671 5670 5669 5669 5666 5662 5658 5654 5650 5645 5641 5637 5632 5624 5618 5616 5614 5612 5610
5692 5694 5689 5692 5696 5703 5704 5705 5705 5703 5700 5697 5693 5689 5685 5681 5678 5675 5672 5670 5669 5667 5665 5664 5662 5659 5658 5658 5657 5654 5650 5646 5643 5639 5636 5631 5627 5622 5618 5613 5607 5600 5596 5595
5682 5683 5681 5685 5688 5690 5692 5691 5688 5685 5683 5681 5680 5676 5672 5669 5665 5662 5661 5660 5658 5656 5654 5652 5650 5647 5647 5647 5645 5642 5639 5636 5632 5629 5625 5621 5617 5613 5609 5604 5599 5593 5588 5584
5670 5673 5674 5676 5676 5677 5678 5677 5673 5671 5670 5668 5665 5662 5660 5657 5654 5652 5650 5649 5647 5644 5641 5640 5638 5636 5636 5636 5634 5631 5628 5625 5622 5620 5616 5612 5608 5604 5600 5595 5591 5586 5582 5578
5660 5661 5663 5664 5666 5666 5666 5665 5663 5660 5659 5656 5653 5651 5648 5646 5643 5640 5638 5637 5635 5633 5631 5630 5628 5627 5626 5625 5624 5622 5618 5615 5612 5610 5607 5604 5599 5595 5591 5586 5581 5577 5572 5568
5656 5658 5659 5659 5658 5655 5655 5654 5652 5650 5647 5645 5642 5640 5637 5634 5632 5629 5627 5626 5624 5622 5620 5620 5619 5618 5617 5615 5614 5613 5610 5607 5605 5602 5598 5594 5590 5587 5583 5578 5573 5569 5564 5560
5649 5649 5649 5648 5648 5646 5644 5642 5641 5639 5636 5634 5632 5629 5626 5624 5621 5619 5618 5616 5614 5611 5610 5610 5609 5609 5608 5607 5607 5605 5603 5600 5597 5593 5589 5584 5581 5578 5574 5570 5566 5561 5557 5552
5640 5639 5637 5636 5636 5635 5633 5631 5629 5627 5626 5624 5621 5618 5615 5613 5612 5610 5609 5607 5606 5604 5603 5602 5602 5602 5601 5600 5599 5598 5596 5593 5589 5584 5581 5578 5573 5569 5565 5561 5556 5552 5547 5543
5629 5628 5627 5625 5624 5623 5622 5621 5619 5618 5616 5615 5612 5609 5607 5605 5603 5602 5600 5597 5595 5595 5595 5594 5595 5594 5593 5592 5591 5591 5589 5586 5582 5577 5574 5570 5565 5561 5556 5552 5547 5543 5539 5534
5620 5618 5617 5615 5614 5613 5612 5612 5612 5610 5608 5606 5604 5602 5599 5597 5596 5594 5592 5591 5588 5587 5589 5589 5588 5586 5585 5585 5587 5585 5582 5579 5575 5571 5567 5562 5557 5552 5547 5543 5538 5534 5529 5524
5610 5609 5607 5606 5605 5604 5603 5603 5602 5602 5600 5598 5596 5595 5593 5592 5591 5589 5585 5584 5584 5581 5583 5581 5579 5578 5577 5579 5580 5577 5574 5570 5567 5563 5558 5553 5548 5543 5538 5534 5529 5525 5520 5515
5600 5599 5598 5598 5598 5596 5594 5594 5595 5594 5593 5591 5590 5589 5589 5587 5584 5583 5581 5577 5577 5576 5576 5572 5572 5571 5570 5573 5572 5569 5566 5562 5558 5554 5549 5544 5539 5534 5529 5525 5520 5516 5511 5507
5593 5592 5592 5591 5590 5589 5588 5588 5588 5587 5587 5586 5585 5584 5584 5583 5580 5578 5576 5573 5570 5571 5569 5567 5566 5565 5566 5566 5564 5561 5557 5553 5550 5546 5541 5536 5532 5526 5521 5516 5512 5508 5504 5500
5587 5586 5586 5586 5586 5585 5585 5585 5584 5584 5583 5582 5581 5580 5579 5577 5576 5573 5571 5569 5568 5565 5565 5563 5562 5560 5560 5558 5555 5552 5548 5544 5541 5537 5532 5528 5524 5519 5514 5509 5504 5501 5497 5493
5581 5580 5580 5581 5581 5583 5584 5584 5583 5581 5580 5579 5577 5576 5575 5574 5573 5571 5569 5566 5564 5563 5561 5559 5558 5556 5554 5551 5548 5544 5541 5537 5533 5529 5525 5520 5516 5512 5508 5503 5499 5495 5490 5487